When you browse on this site, cookies collect data to enhance your experience and personalize the content and advertising you see.
Visit our Privacy Policy to learn more. By continuing to use the site, you agree to this use of cookies and data.
  • In Schweiz
  • Länderverzeichnis
  • Für 7 Tage
  • Wassertemperatur
  • Wetterkarte
  • Widgets
  • user-avatar
    Anmelden

    Stündliche Wetter Majadahonda

    Heute, 7 Dezember, Samstag

    Zeit Temperatur Niederschläge Wind Luftdruck Luftfeuchtigkeit
    00:00 +6°C° 0 mm 0 m/S 703 mmHg 83%
    01:00 +6°C° 0 mm 0 m/S 703 mmHg 83%
    02:00 +7°C° 0 mm 1 m/S 702 mmHg 83%
    03:00 +7°C° 0 mm 1 m/S 702 mmHg 83%
    04:00 +7°C° 0 mm 1 m/S 702 mmHg 83%
    05:00 +6°C° 0 mm 1 m/S 702 mmHg 83%
    06:00 +5°C° 0 mm 0 m/S 702 mmHg 83%
    07:00 +6°C° 0 mm 0 m/S 703 mmHg 80%
    08:00 +7°C° 0 mm 0 m/S 703 mmHg 76%
    09:00 +7°C° 0 mm 0 m/S 703 mmHg 73%
    10:00 +9°C° 0 mm 0 m/S 703 mmHg 68%
    11:00 +10°C° 0 mm 0 m/S 703 mmHg 63%
    12:00 +11°C° 0 mm 0 m/S 703 mmHg 58%
    13:00 +12°C° 0 mm 1 m/S 703 mmHg 58%
    14:00 +13°C° 0 mm 1 m/S 702 mmHg 57%
    15:00 +13°C° 0 mm 1 m/S 702 mmHg 57%
    16:00 +12°C° 0 mm 1 m/S 702 mmHg 63%
    17:00 +10°C° 0 mm 1 m/S 702 mmHg 68%
    18:00 +9°C° 0 mm 1 m/S 703 mmHg 74%
    19:00 +9°C° 0 mm 1 m/S 703 mmHg 75%
    20:00 +9°C° 0 mm 1 m/S 703 mmHg 75%
    21:00 +8°C° 0 mm 1 m/S 704 mmHg 76%
    22:00 +8°C° 0 mm 1 m/S 704 mmHg 76%
    23:00 +7°C° 0 mm 0 m/S 704 mmHg 76%

    Morgen, 8 Dezember, Sonntag

    Zeit Temperatur Niederschläge Wind Luftdruck Luftfeuchtigkeit
    00:00 +6°C° 0 mm 0 m/S 704 mmHg 77%
    01:00 +6°C° 0 mm 0 m/S 704 mmHg 77%
    02:00 +6°C° 0 mm 0 m/S 704 mmHg 78%
    03:00 +6°C° 0 mm 0 m/S 703 mmHg 78%
    04:00 +6°C° 0 mm 0 m/S 704 mmHg 79%
    05:00 +6°C° 0 mm 1 m/S 704 mmHg 80%
    06:00 +6°C° 0 mm 1 m/S 704 mmHg 81%
    07:00 +7°C° 0 mm 1 m/S 704 mmHg 80%
    08:00 +8°C° 0 mm 1 m/S 704 mmHg 78%
    09:00 +9°C° 0 mm 1 m/S 705 mmHg 76%
    10:00 +10°C° 0 mm 1 m/S 705 mmHg 72%
    11:00 +11°C° 0 mm 1 m/S 704 mmHg 68%
    12:00 +12°C° 0 mm 2 m/S 704 mmHg 63%
    13:00 +12°C° 0 mm 2 m/S 704 mmHg 64%
    14:00 +13°C° 0 mm 2 m/S 704 mmHg 64%
    15:00 +12°C° 0 mm 3 m/S 703 mmHg 65%
    16:00 +12°C° 0.1 mm 2 m/S 703 mmHg 70%
    17:00 +12°C° 0.1 mm 2 m/S 704 mmHg 75%
    18:00 +10°C° 0.1 mm 2 m/S 704 mmHg 79%
    19:00 +10°C° 0.1 mm 2 m/S 704 mmHg 81%
    20:00 +10°C° 0.1 mm 2 m/S 704 mmHg 83%
    21:00 +10°C° 0.1 mm 2 m/S 705 mmHg 85%
    22:00 +9°C° 0 mm 2 m/S 705 mmHg 87%
    23:00 +9°C° 0 mm 2 m/S 705 mmHg 88%

    übermorgen, 9 Dezember, Montag

    Zeit Temperatur Niederschläge Wind Luftdruck Luftfeuchtigkeit
    00:00 +9°C° 0 mm 1 m/S 705 mmHg 89%
    01:00 +9°C° 0 mm 1 m/S 705 mmHg 89%
    02:00 +9°C° 0 mm 1 m/S 705 mmHg 89%
    03:00 +9°C° 0 mm 1 m/S 705 mmHg 89%
    04:00 +8°C° 0 mm 1 m/S 705 mmHg 89%
    05:00 +8°C° 0 mm 1 m/S 705 mmHg 89%
    06:00 +7°C° 0 mm 1 m/S 705 mmHg 88%
    07:00 +8°C° 0 mm 1 m/S 706 mmHg 85%
    08:00 +8°C° 0 mm 1 m/S 707 mmHg 81%
    09:00 +9°C° 0 mm 1 m/S 707 mmHg 78%
    10:00 +10°C° 0 mm 1 m/S 707 mmHg 69%
    11:00 +11°C° 0 mm 1 m/S 707 mmHg 60%
    12:00 +13°C° 0 mm 1 m/S 707 mmHg 51%
    13:00 +13°C° 0 mm 1 m/S 707 mmHg 48%
    14:00 +14°C° 0 mm 2 m/S 707 mmHg 46%
    15:00 +14°C° 0 mm 2 m/S 707 mmHg 43%
    16:00 +13°C° 0 mm 2 m/S 707 mmHg 48%
    17:00 +10°C° 0 mm 2 m/S 707 mmHg 53%
    18:00 +9°C° 0 mm 2 m/S 707 mmHg 58%
    19:00 +8°C° 0 mm 2 m/S 707 mmHg 57%
    20:00 +9°C° 0 mm 1 m/S 708 mmHg 55%
    21:00 +8°C° 0 mm 1 m/S 708 mmHg 54%
    22:00 +8°C° 0 mm 1 m/S 708 mmHg 53%
    23:00 +7°C° 0 mm 1 m/S 707 mmHg 53%

    10 Dezember, Dienstag

    Zeit Temperatur Niederschläge Wind Luftdruck Luftfeuchtigkeit
    00:00 +7°C° 0 mm 1 m/S 707 mmHg 52%
    01:00 +7°C° 0 mm 1 m/S 707 mmHg 52%
    02:00 +6°C° 0 mm 1 m/S 707 mmHg 52%
    03:00 +6°C° 0 mm 1 m/S 706 mmHg 52%
    04:00 +6°C° 0 mm 1 m/S 706 mmHg 51%
    05:00 +6°C° 0 mm 1 m/S 706 mmHg 51%
    06:00 +6°C° 0 mm 1 m/S 706 mmHg 51%
    07:00 +6°C° 0 mm 1 m/S 706 mmHg 50%
    08:00 +7°C° 0 mm 1 m/S 706 mmHg 49%
    09:00 +8°C° 0 mm 1 m/S 706 mmHg 47%
    10:00 +9°C° 0 mm 1 m/S 706 mmHg 43%
    11:00 +11°C° 0 mm 1 m/S 706 mmHg 39%
    12:00 +11°C° 0 mm 0 m/S 705 mmHg 35%
    13:00 +12°C° 0 mm 1 m/S 705 mmHg 36%
    14:00 +12°C° 0 mm 1 m/S 704 mmHg 37%
    15:00 +13°C° 0 mm 1 m/S 704 mmHg 39%
    16:00 +11°C° 0 mm 1 m/S 704 mmHg 43%
    17:00 +10°C° 0 mm 1 m/S 704 mmHg 47%
    18:00 +9°C° 0 mm 1 m/S 703 mmHg 52%
    19:00 +9°C° 0 mm 1 m/S 703 mmHg 54%
    20:00 +8°C° 0 mm 1 m/S 704 mmHg 56%
    21:00 +8°C° 0 mm 1 m/S 704 mmHg 58%
    22:00 +8°C° 0 mm 1 m/S 704 mmHg 58%
    23:00 +7°C° 0 mm 1 m/S 704 mmHg 59%

    11 Dezember, Mittwoch

    Zeit Temperatur Niederschläge Wind Luftdruck Luftfeuchtigkeit
    00:00 +7°C° 0 mm 1 m/S 703 mmHg 60%
    01:00 +7°C° 0 mm 1 m/S 703 mmHg 59%
    02:00 +7°C° 0 mm 1 m/S 703 mmHg 59%
    03:00 +6°C° 0 mm 1 m/S 702 mmHg 59%
    04:00 +6°C° 0 mm 1 m/S 702 mmHg 59%
    05:00 +6°C° 0 mm 1 m/S 702 mmHg 60%
    06:00 +6°C° 0 mm 1 m/S 702 mmHg 61%
    07:00 +6°C° 0.1 mm 1 m/S 703 mmHg 63%
    08:00 +7°C° 0.1 mm 1 m/S 703 mmHg 66%
    09:00 +7°C° 0.1 mm 1 m/S 704 mmHg 68%
    10:00 +8°C° 0 mm 1 m/S 704 mmHg 66%
    11:00 +9°C° 0 mm 1 m/S 703 mmHg 64%
    12:00 +10°C° 0 mm 1 m/S 703 mmHg 62%
    13:00 +11°C° 0 mm 1 m/S 703 mmHg 61%
    14:00 +10°C° 0 mm 2 m/S 703 mmHg 60%
    15:00 +10°C° 0 mm 3 m/S 703 mmHg 59%
    16:00 +9°C° 0 mm 3 m/S 703 mmHg 63%
    17:00 +8°C° 0 mm 3 m/S 704 mmHg 66%
    18:00 +7°C° 0 mm 3 m/S 704 mmHg 69%
    19:00 +5°C° 0 mm 3 m/S 704 mmHg 70%
    20:00 +5°C° 0 mm 3 m/S 705 mmHg 71%
    21:00 +4°C° 0 mm 3 m/S 705 mmHg 71%
    22:00 +5°C° 0 mm 2 m/S 705 mmHg 71%
    23:00 +5°C° 0 mm 2 m/S 705 mmHg 71%

    12 Dezember, Donnerstag

    Zeit Temperatur Niederschläge Wind Luftdruck Luftfeuchtigkeit
    00:00 +4°C° 0 mm 2 m/S 705 mmHg 71%
    01:00 +4°C° 0 mm 2 m/S 705 mmHg 72%
    02:00 +3°C° 0 mm 2 m/S 705 mmHg 73%
    03:00 +4°C° 0 mm 1 m/S 705 mmHg 75%
    04:00 +4°C° 0 mm 1 m/S 705 mmHg 76%
    05:00 +4°C° 0 mm 1 m/S 705 mmHg 76%
    06:00 +3°C° 0 mm 1 m/S 705 mmHg 77%
    07:00 +4°C° 0 mm 1 m/S 705 mmHg 74%
    08:00 +5°C° 0 mm 1 m/S 705 mmHg 72%
    09:00 +5°C° 0 mm 1 m/S 706 mmHg 69%
    10:00 +7°C° 0 mm 1 m/S 705 mmHg 65%
    11:00 +7°C° 0 mm 2 m/S 705 mmHg 60%
    12:00 +8°C° 0 mm 2 m/S 704 mmHg 56%
    13:00 +8°C° 0 mm 3 m/S 704 mmHg 57%
    14:00 +8°C° 0 mm 3 m/S 704 mmHg 57%
    15:00 +7°C° 0 mm 4 m/S 703 mmHg 58%
    16:00 +7°C° 0 mm 4 m/S 703 mmHg 62%
    17:00 +6°C° 0 mm 4 m/S 704 mmHg 66%
    18:00 +5°C° 0 mm 4 m/S 704 mmHg 70%
    19:00 +5°C° 0 mm 4 m/S 704 mmHg 72%
    20:00 +5°C° 0 mm 4 m/S 704 mmHg 74%
    21:00 +5°C° 0 mm 4 m/S 704 mmHg 76%
    22:00 +5°C° 0 mm 3 m/S 704 mmHg 77%
    23:00 +5°C° 0 mm 3 m/S 704 mmHg 78%
    Mehr zeigen